Tracking 23645 objects as of 21-Sep-2021
HD Live streaming from Space Station
objects crossing your sky now

RADUGA 1-5

Track RADUGA 1-5 now!
RADUGA 1-5 is classified as:


NORAD ID: 26477
Int'l Code: 2000-049A
Perigee: 35,779.5 km
Apogee: 35,829.1 km
Inclination: 13.0 °
Period: 1,436.6 minutes
Semi major axis: 42175 km
RCS: 10 m2 (large)
Launch date: August 28, 2000
Source: Commonwealth of Independent States (former USSR) (CIS)
Launch site: TYURATAM MISSILE AND SPACE COMPLEX (TTMTR)

Military communication.
aabbcc
Your satellite tracking list
Your tracking list is empty




NASA's NSSDC Master Catalog

Two Line Element Set (TLE):
1 26477U 00049A   21264.75915625 -.00000322  00000-0  00000+0 0  9991
2 26477  12.9676  20.4474 0005880  50.5996 303.0968  1.00234121 77158
Source of the keplerian elements: AFSPC